Regional Weather Roundup
Issued by NWS Sterling, VA

Home | Current Version | Previous Version | Text Only | Print | Product List | Glossary On
Versions: 1 2 3 4 5 6 7 8 9 10 11 12 13 14 15 16 17 18 19 20 21 22 23 24 25 26 27 28 29 30 31 32 33 34 35 36 37 38 39 40 41 42 43 44 45 46 47 48 49 50
000
ASUS41 KLWX 301410
RWRLWX

REGIONAL WEATHER ROUNDUP
NATIONAL WEATHER SERVICE BALTIMORE MD/WASHINGTON DC
1000 AM EDT TUE SEP 30 2014

Note: "FAIR" indicates few or no clouds below 12,000 feet
with no significant weather and/or obstructions to visibility.
 TC=TEMPERATURE CELSIUS

 * =Non NWS site. Station does not report precipitation (e.g. rain,
    snow, etc.), thunder, or fog.

DCZ001-MDZ009-015-VAZ040>042-051-053>054-301500-
WASHINGTON METRO

CITY           SKY/WX    TMP DP  RH WIND       PRES   REMARKS
WASHINGTON NAT CLOUDY    68  62  81 S6        29.94F
DULLES         CLOUDY    63  61  93 CALM      29.95S FOG
ANDREWS AFB    CLOUDY    64  64  99 S3        29.94S
QUANTICO       CLOUDY    65  61  87 SE6       29.95S
COLLEGE PARK*  CLOUDY    68  61  77 SE3       29.93F
LEESBURG*      CLOUDY    64  63  94 S3        29.95S
MANASSAS*      CLOUDY    64  64 100 SE3       29.94S
GAITHERSBURG*  CLOUDY    64  61  88 SE5       29.98S

$$

MDZ006>007-011-014-301500-
BALTIMORE METRO

CITY           SKY/WX    TMP DP  RH WIND       PRES   REMARKS
BWI AIRPORT    PTSUNNY   67  61  81 S5        29.93F
MD SCIENCE CTR   N/A     70  62  76 MISG      29.94S
MARTIN STATE   CLOUDY    70  66  88 CALM      29.95S
ANNAPOLIS      PTSUNNY   69  62  78 S3        29.93F

$$

MDZ012-015-019>023-301500-
MARYLAND EASTERN SHORE

CITY           SKY/WX    TMP DP  RH WIND       PRES   REMARKS
OCEAN CITY     CLOUDY    71  62  73 N8        29.94S
SALISBURY      CLOUDY    69  60  73 CALM      29.94S
BAY BRIDGE AP*   N/A     68  63  83 W3        29.94S
CAMBRIDGE*     MOSUNNY   72  64  78 SE5       29.93F
EASTON*        MOSUNNY   72  68  88 CALM      29.97F

$$

MDZ017>025-301500-
SOUTHERN MARYLAND

CITY           SKY/WX    TMP DP  RH WIND       PRES   REMARKS
PATUXENT RIVER MOSUNNY   67  63  87 VRB3      29.93F
ST INIGOES     CLOUDY    66  61  84 NW3       29.93S
LEONARDTOWN*   CLOUDY    64  61  88 CALM      29.95F

$$

MDZ003>005-301500-
NORTH CENTRAL MARYLAND

CITY           SKY/WX    TMP DP  RH WIND       PRES   REMARKS
FREDERICK*     NOT AVBL
HAGERSTOWN APT CLOUDY    64  60  87 CALM      29.94S FOG
WESTMINSTER*   CLOUDY    66  61  82 CALM      29.95S

$$

MDZ501>502-301500-
WESTERN MARYLAND

CITY           SKY/WX    TMP DP  RH WIND       PRES   REMARKS
OAKLAND*       SUNNY     63 N/A N/A S3        29.99S
CUMBERLAND*    NOT AVBL

$$

VAZ025>031-301500-
SHENANDOAH VALLEY

CITY           SKY/WX    TMP DP  RH WIND       PRES   REMARKS
WINCHESTER*    SUNNY     66  59  77 CALM      29.93F
STAUNTON*      FOG       58  57  96 CALM      29.97S VSB 3/4

$$

WVZ021-048>050-054>055-301500-
EASTERN WEST VIRGINIA PANHANDLE

CITY           SKY/WX    TMP DP  RH WIND       PRES   REMARKS
MARTINSBURG    CLOUDY    61  57  87 CALM      29.94S FOG
PETERSBURG*    SUNNY    N/A N/A N/A CALM      29.95F

$$

VAZ036>039-050-301500-
CENTRAL FOOTHILLS

CITY           SKY/WX    TMP DP  RH WIND       PRES   REMARKS
CHARLOTTESVILL CLOUDY    63  62  97 CALM      29.94S FOG
ORANGE*        CLOUDY    63  61  94 CALM      29.96R

$$

VAZ055>057-301500-
NORTH AND CENTRAL PIEDMONT

CITY           SKY/WX    TMP DP  RH WIND       PRES   REMARKS
FREDERICKSBRG* CLOUDY    67  65  93 CALM      29.93S
STAFFORD*      CLOUDY    66  66 100 E5        29.98S

$$

NCZ024-NYZ072-PAZ021-071-VAZ022-071-301500-
OTHER REGIONAL OBSERVATIONS

CITY           SKY/WX    TMP DP  RH WIND       PRES   REMARKS
NEW YORK CITY  CLOUDY    69  61  75 NE6       29.99F
PHILADELPHIA   PTSUNNY   71  57  61 CALM      29.95S
PITTSBURGH     MOSUNNY   63  58  83 CALM      29.91R
ROANOKE        MOSUNNY   64  58  80 NW3       29.98S
RICHMOND       CLOUDY    66  62  87 CALM      29.93F
RALEIGH        CLOUDY    65  61  87 NE3       29.95F FOG

$$

ANZ530>537-301500-
MARINE OBSERVATIONS

STATION/POSITION TIME  TEMP    WIND        PRES
                       AIR SEA DIR/SP/G
                 (UTC) (F)     (DEG/KT/KT) (MB)
THOMAS PT LIGHT  1400   66 71  230/  5/  5 1014.7F
BALT KEY BRIDGE  1400   66     200/  1/  2 1013.7F
COVE POINT       1400   66      50/  1/  2 1013.7S
LEWISETTA        1400   64 71  310/  5/  6 1013.3S
SOLOMONS ISLAND  1400      72                N/A
PINEY POINT      1400          280/  3/  3   N/A

$$



USA.gov is the U.S. government's official web portal to all federal, state and local government web resources and services.